User: anonymous   Login
Location: Caltech
(34.1382°N, 118.1253°W)
Time: 08:32:07
(UTC-07:00)
Language:

Oscar 11 - Orbit

View from above orbital plane
View from above orbital plane
View from above satellite
View from above satellite

Ground track
Ground track

The orbit data is extracted from the following two-line orbital elements,

1 14781U 84021B   15116.39576693  .00001163  00000-0  15194-3 0  9992
2 14781 097.8067 174.7409 0007447 234.1833 125.8689 14.82323893674355
Epoch (UTC): 26 April 2015 09:29:54
Eccentricity: 0.0007447
inclination: 97.8067°
perigee height: 617 km
apogee height: 627 km
right ascension of ascending node: 174.7409°
argument of perigee: 234.1833°
revolutions per day: 14.82323893
mean anomaly at epoch: 125.8689°
orbit number at epoch: 67435

The dashed part of the orbit path shows where the satellite is in the earth's shadow,  

DLR